PRAETORIAN SDA_613

Last updated on Sat Oct 11 2025 00:02:05 GMT+0000 (Coordinated Universal Time)

1 65576U 25203M 25283.40475131 .00000020 00000+0 68137-5 0 9997 2 65576 81.2989 242.1593 0007583 142.3273 217.8417 13.84727508 4132
UTC large
Height (km)
Speed (km/s)
/
Latitude / Longitude
Inclination (degrees)
Orbital Period (minutes)
Azimuth
Elevation
Range (km)
Doppler Factor

Next 0 passes for location: London (51.5072 / 0.1276)

Sorry there are no passes over London.
PRAETORIAN SDA_613